User: anonymous   Login
Location: Bogis-Bossey
(46.3500°N, 6.1667°E)
Time: 23:38:35
(UTC+00:00)
Language:

Cosmos 2112 Rocket - Orbit

View from above orbital plane
View from above orbital plane
View from above satellite
View from above satellite

Ground track
Ground track

The orbit data is extracted from the following two-line orbital elements,

1 21015U 90111B   22334.34530694  .00000094  00000-0  41252-4 0  9990
2 21015  74.0515  82.9326 0022283 217.5320 142.4279 14.36138183772070
Epoch (UTC): 30 November 2022 08:17:14
Eccentricity: 0.0022283
inclination: 74.0515°
perigee height: 755 km
apogee height: 787 km
right ascension of ascending node: 82.9326°
argument of perigee: 217.5320°
revolutions per day: 14.36138183
mean anomaly at epoch: 142.4279°
orbit number at epoch: 77207

The dashed part of the orbit path shows where the satellite is in the earth's shadow,  

DLR